This is the latest recevied weather packets stored in our database for station/object XE2OR-10. If no packets are shown the sender has not sent any weather packets the latest 10 day(s).
| Time | Temp. | Humidity | Pressure | Rain* | Wind** | Luminosity | Snow |
|---|---|---|---|---|---|---|---|
| 1777669429 | 23.33° C | 78% | 1015.5 hPa | 0 mm | - | 401 W/m² | - |
| 1777669129 | 22.78° C | 79% | 1015.2 hPa | 0 mm | - | 364 W/m² | - |
| 1777668832 | 23.33° C | 78% | 1015.7 hPa | 0 mm | - | 382 W/m² | - |
| 1777668528 | 22.78° C | 78% | 1015.7 hPa | 0 mm | - | 508 W/m² | - |
| 1777668232 | 23.33° C | 78% | 1015.5 hPa | 0 mm | - | 736 W/m² | - |
| 1777667929 | 23.33° C | 78% | 1015.8 hPa | 0 mm | - | 661 W/m² | - |
| 1777667629 | 22.78° C | 78% | 1015.8 hPa | 0 mm | - | 549 W/m² | - |
| 1777667328 | 22.22° C | 80% | 1016 hPa | 0 mm | - | 796 W/m² | - |
| 1777667032 | 21.67° C | 81% | 1016.2 hPa | 0 mm | - | 264 W/m² | - |
| 1777666728 | 21.67° C | 80% | 1016.4 hPa | 0 mm | - | 248 W/m² | - |
| 1777666432 | 21.67° C | 81% | 1016.4 hPa | 0 mm | - | 232 W/m² | - |
| 1777666129 | 21.67° C | 81% | 1016.4 hPa | 0 mm | - | 232 W/m² | - |
| 1777665829 | 21.67° C | 81% | 1016.5 hPa | 0 mm | - | 215 W/m² | - |
| 1777665529 | 21.67° C | 81% | 1016.6 hPa | 0 mm | - | 260 W/m² | - |
| 1777665233 | 21.67° C | 81% | 1016.7 hPa | 0 mm | - | 358 W/m² | - |
| 1777664929 | 21.67° C | 82% | 1016.6 hPa | 0 mm | - | 327 W/m² | - |
| 1777664633 | 21.67° C | 82% | 1016.5 hPa | 0 mm | - | 222 W/m² | - |
| 1777664329 | 21.67° C | 82% | 1016.4 hPa | 0 mm | - | 203 W/m² | - |
| 1777664035 | 21.67° C | 82% | 1016.4 hPa | 0 mm | - | 243 W/m² | - |
| 1777664029 | 21.67° C | 82% | 1016.4 hPa | 0 mm | - | 243 W/m² | - |
| 1777663728 | 21.11° C | 82% | 1016.4 hPa | 0 mm | - | 235 W/m² | - |
| 1777663432 | 21.11° C | 82% | 1016.4 hPa | 0 mm | - | 330 W/m² | - |
| 1777663133 | 21.11° C | - | - | 0 mm | - | - | - |
| 1777663129 | 21.11° C | 83% | 1016.2 hPa | 0 mm | - | 350 W/m² | - |
| 1777662832 | 20.56° C | 84% | 1016.6 hPa | 0 mm | - | 216 W/m² | - |
* Rain latest hour (hover to see other rain measurements)
** Current wind speed in m/s (hover to see current wind gust speed)